Theta_e
346 345 346 346 346 345 345 346 345 344 343 342 341 339 340 341 340 339 337 339 339 338 337 335 333 334 333 332 335 336 335 335 336 336 337 339 339 338 339 339 340 341 339 340 341 342 342 342 341 340 339 340 342 342 343 343 342 342 342 342 342 342 343 344 344 342 341 341 342 344 344 343 343 344 344 344 344 344 344 343 343 343 340 328 317
344 344 345 345 345 344 345 344 343 342 341 340 338 337 337 337 336 336 337 338 338 337 334 331 329 330 328 327 330 331 333 336 338 339 339 340 339 339 339 339 339 339 339 340 342 342 343 343 344 343 343 342 343 343 343 343 342 342 342 342 342 342 344 344 344 342 341 341 343 344 344 344 345 344 344 344 343 344 343 343 343 343 337 324 316
343 343 344 344 343 343 344 341 339 338 339 338 336 334 334 334 335 335 337 337 336 335 332 328 326 326 325 326 327 330 337 339 340 340 341 341 341 341 341 340 338 337 337 338 341 343 343 343 344 344 343 343 344 344 344 342 341 343 343 342 342 342 344 343 343 343 343 343 344 344 345 344 344 344 344 344 343 344 343 343 342 342 335 322 318
343 343 342 343 341 342 342 338 336 336 337 336 334 332 331 332 333 334 334 334 332 330 328 325 325 327 329 331 333 335 339 340 340 341 341 342 342 342 342 341 338 336 337 337 340 343 343 343 344 344 344 344 344 343 343 343 342 343 343 342 342 342 343 343 343 344 344 344 344 344 344 344 344 343 344 344 343 343 343 343 341 341 335 322 324
343 343 342 342 341 342 341 338 337 336 335 334 332 331 331 332 332 333 332 330 328 326 325 327 329 334 337 338 341 341 342 341 341 341 342 343 343 343 342 341 340 339 340 341 342 342 343 343 344 344 344 344 343 342 343 344 343 343 343 343 343 342 343 343 343 344 344 342 342 342 342 343 343 343 343 343 343 343 343 342 342 341 333 324 332
343 342 343 342 342 341 340 339 337 334 333 332 331 331 332 332 332 332 330 328 326 326 328 332 336 339 342 343 344 343 342 341 340 342 343 343 343 343 343 342 343 343 343 343 343 343 343 343 343 344 344 343 343 342 343 344 344 344 344 343 342 342 342 343 343 343 342 341 342 342 342 343 343 343 342 343 343 342 342 341 341 338 329 328 338
343 343 343 342 343 340 339 337 334 331 332 332 332 333 333 333 332 331 328 326 326 329 334 337 340 340 342 343 343 342 341 340 341 343 343 343 343 344 344 343 344 344 343 343 344 343 343 343 343 343 343 343 343 343 343 342 343 343 343 342 342 341 341 342 342 341 341 342 342 342 342 342 342 342 342 342 342 341 341 341 340 333 325 333 339
343 343 343 343 342 340 338 336 335 333 332 333 333 333 333 332 330 328 326 326 329 334 339 340 341 342 342 342 342 342 343 343 343 343 343 343 344 344 344 344 343 343 343 343 343 343 343 343 343 344 344 343 343 343 343 343 342 342 342 341 341 342 342 342 341 341 342 341 341 341 341 340 340 340 340 340 340 341 341 339 336 329 328 336 338
343 344 343 341 340 340 339 338 337 335 333 333 333 333 331 330 328 327 327 329 334 338 340 341 342 342 342 342 343 343 344 344 344 343 344 344 344 344 344 344 343 343 343 343 344 343 342 343 344 345 344 343 342 343 343 343 341 340 340 341 342 342 342 340 339 339 339 339 339 339 338 336 335 336 336 337 337 337 337 335 332 331 334 337 337
344 343 341 339 339 340 339 339 338 335 333 333 332 332 331 330 329 327 329 335 339 339 340 340 341 342 342 343 343 344 344 344 344 344 344 344 344 344 343 343 343 343 343 343 343 342 342 343 343 344 344 343 343 343 343 342 342 342 342 343 343 342 341 338 336 336 336 338 338 338 336 334 332 333 335 334 333 332 333 332 332 334 337 337 338
343 341 340 338 337 338 339 339 337 334 333 333 332 332 331 330 329 329 334 340 341 340 340 340 340 341 342 342 343 343 343 344 344 344 344 344 344 344 343 343 343 343 343 342 341 340 340 341 342 343 343 342 343 343 343 343 343 344 344 343 342 341 339 336 335 335 337 339 339 338 335 330 325 328 333 333 333 334 334 334 335 336 337 337 337
343 340 339 337 337 338 339 339 338 337 336 336 334 332 330 329 332 336 339 341 342 341 340 339 340 341 342 342 342 342 343 344 344 344 344 344 343 343 343 343 343 343 342 341 339 340 341 341 342 342 342 342 343 343 342 342 342 343 343 343 341 339 338 337 336 336 337 338 338 336 332 326 323 327 334 336 337 337 336 335 336 336 336 336 336
341 339 338 339 341 342 341 340 340 340 340 338 333 329 329 333 338 341 342 341 341 341 339 338 339 340 342 342 341 341 342 344 344 343 344 344 343 343 343 343 342 343 342 341 341 341 342 342 342 342 342 342 342 342 342 342 342 342 343 342 341 340 339 337 336 337 338 338 336 333 331 330 332 335 338 339 338 337 336 336 336 336 336 335 334
339 338 339 342 344 344 344 342 342 343 343 339 330 329 334 339 342 342 342 341 341 340 340 339 339 341 343 343 343 342 343 343 343 343 344 344 344 344 343 343 343 343 341 341 342 342 342 342 342 342 342 341 341 342 342 342 342 342 343 342 341 340 339 337 336 338 339 337 334 332 331 333 337 338 338 338 336 336 336 336 336 336 336 336 336
338 339 342 345 344 344 345 344 344 345 345 338 328 331 339 342 342 341 342 341 341 341 340 341 340 341 343 344 343 343 343 343 343 343 344 344 344 344 344 344 343 343 341 341 342 342 343 342 342 342 342 342 341 341 342 342 342 342 343 342 340 340 339 337 337 338 339 336 332 329 330 333 336 336 337 336 336 337 336 337 337 337 338 338 338
339 341 344 345 345 345 345 345 344 344 346 338 328 335 341 341 342 342 342 342 341 341 341 342 341 342 343 343 343 343 343 343 343 344 344 343 344 344 344 344 343 342 340 341 342 342 342 342 342 342 342 342 341 341 342 342 342 342 342 341 340 339 338 337 336 337 338 336 331 328 330 334 335 335 336 336 336 336 337 338 338 338 339 338 338
339 342 345 345 346 346 345 345 344 345 345 335 329 338 340 339 340 341 342 341 341 341 341 343 342 342 343 343 342 343 343 343 344 344 345 343 344 344 343 343 342 340 340 341 342 342 342 342 342 342 342 342 341 341 341 341 342 342 341 341 340 339 338 337 336 336 337 337 332 328 330 334 334 334 335 336 336 336 337 338 339 340 339 339 337
340 342 345 345 346 345 345 345 345 345 340 331 333 340 340 339 340 341 341 341 340 339 340 343 343 343 343 343 342 343 343 343 344 344 344 343 344 344 343 342 340 339 339 341 343 342 342 342 341 341 342 342 342 342 341 342 342 342 341 340 339 338 338 337 335 335 337 337 334 331 333 335 335 335 336 336 336 337 338 339 341 341 340 339 338
339 341 344 346 345 344 345 345 345 342 335 333 339 342 341 340 341 342 342 340 339 339 340 343 343 343 343 343 343 343 343 343 344 344 343 343 343 343 342 341 339 339 339 341 343 343 342 342 342 342 342 342 342 341 341 342 342 341 340 339 338 337 337 337 336 335 336 337 336 335 336 336 336 337 337 338 339 340 340 341 342 341 341 340 339
338 341 344 345 345 343 344 344 342 337 335 338 342 342 341 342 342 343 341 340 339 340 341 343 344 344 344 344 343 342 342 343 343 344 343 342 342 342 341 341 340 339 338 341 344 343 342 342 343 342 342 342 342 341 341 341 341 341 340 338 337 337 336 336 336 335 335 337 337 337 336 336 337 337 338 339 340 341 341 341 341 341 341 340 340
339 342 344 344 342 341 341 341 339 338 339 341 342 342 342 343 343 342 341 340 341 342 342 343 345 345 345 345 343 341 340 343 343 343 343 341 340 341 341 341 340 339 338 340 343 343 342 342 342 342 342 342 342 341 341 340 340 340 338 336 336 337 336 336 336 336 336 336 338 338 338 339 339 339 340 341 341 341 341 340 340 340 340 340 340
340 343 345 342 338 337 339 340 340 341 342 341 341 342 344 344 343 342 341 342 344 344 343 344 345 345 345 345 342 340 340 343 343 342 341 340 340 341 341 342 341 341 340 339 341 343 342 342 342 342 342 342 342 341 341 341 340 338 334 332 334 336 336 336 336 336 336 336 337 339 340 341 341 341 341 341 341 341 341 340 340 340 340 340 340
341 342 341 338 335 337 340 341 342 342 341 340 341 343 344 343 342 342 342 343 344 344 343 344 344 344 345 344 342 341 341 342 342 342 341 341 340 340 341 342 341 342 340 337 339 342 342 342 342 342 341 341 341 341 340 338 336 333 330 330 332 334 335 336 336 336 336 336 337 337 339 340 341 341 341 340 340 341 340 339 339 340 340 339 339
339 337 335 334 336 339 341 342 342 341 341 341 343 345 344 343 342 342 343 344 344 343 344 344 343 344 344 343 342 342 342 342 342 342 341 340 340 340 341 340 341 341 339 337 337 340 341 341 341 341 341 341 341 340 339 336 333 330 328 329 330 332 334 334 335 335 335 335 336 336 336 338 339 340 340 340 340 340 339 339 339 340 339 339 339
334 331 333 337 338 340 342 342 342 340 340 342 345 345 344 343 342 342 343 343 343 343 343 344 343 343 343 342 342 342 342 342 341 340 339 340 340 340 340 339 339 339 337 336 336 339 341 341 341 341 342 342 342 341 339 336 333 329 327 327 328 330 331 331 332 332 332 332 333 333 333 334 334 335 336 337 337 337 338 339 339 339 339 339 339
329 329 336 341 339 340 343 341 340 340 341 344 345 345 344 343 342 342 343 343 343 343 343 343 342 342 342 342 341 341 341 341 340 340 339 340 340 339 338 337 337 337 337 338 340 341 342 343 343 343 343 343 343 342 340 338 334 332 329 327 327 328 328 327 328 327 327 328 328 329 329 330 330 330 332 332 333 334 336 338 339 339 339 339 339
326 330 338 342 340 340 341 340 339 340 342 344 345 344 343 342 342 343 343 343 342 341 340 340 340 340 340 340 340 340 340 340 340 339 339 339 339 338 336 336 337 339 340 342 343 343 344 344 344 343 343 343 343 343 342 340 338 337 334 331 328 328 327 327 327 327 327 327 327 327 327 328 328 328 328 329 331 332 335 338 339 339 338 338 337
327 332 338 341 340 339 340 339 339 340 341 343 344 343 342 342 342 342 341 341 340 339 338 337 338 338 338 339 339 339 339 339 339 339 338 338 338 337 336 336 339 341 343 343 344 344 344 344 344 344 343 343 343 343 343 342 341 340 338 335 333 331 330 329 329 329 329 329 328 328 328 328 328 329 328 329 331 333 334 336 336 335 335 335 334
329 335 338 339 339 339 339 339 339 340 341 343 343 342 342 342 342 340 339 339 339 338 338 338 337 336 336 338 338 338 339 339 338 337 337 337 338 338 338 337 339 342 343 344 345 345 345 345 344 344 344 343 343 343 342 342 341 341 339 337 336 335 334 334 333 332 331 331 330 330 330 329 330 330 330 329 330 331 331 330 330 330 331 332 332
332 336 337 338 339 339 339 339 339 340 341 342 342 342 342 341 340 338 338 339 339 338 339 340 338 335 334 336 338 338 338 338 337 336 337 338 339 339 340 341 342 343 344 345 345 346 345 345 344 344 344 343 343 343 343 342 341 341 341 340 338 337 336 336 336 335 334 334 333 333 332 332 332 332 333 333 332 332 331 331 331 332 332 333 334
334 337 337 339 339 338 339 339 339 341 340 341 341 340 341 340 339 339 339 339 338 339 340 340 338 334 333 334 335 336 337 337 336 336 338 339 340 340 341 343 343 344 344 345 345 345 345 345 344 344 344 343 344 344 344 343 342 342 342 341 340 339 338 337 336 336 336 336 335 335 335 335 334 335 336 336 336 336 336 336 337 336 336 337 337
335 336 337 339 338 337 338 339 340 340 340 339 340 339 340 339 339 339 339 339 339 339 339 339 339 337 336 336 335 335 336 336 336 337 339 340 341 341 341 342 343 344 344 344 345 345 345 345 344 344 344 344 344 344 344 344 344 343 343 343 343 342 341 340 339 338 338 338 338 337 336 336 336 337 337 337 337 337 338 339 339 339 338 338 338
334 335 337 338 337 336 337 339 339 340 339 338 339 339 339 339 340 340 339 339 339 339 339 339 340 340 340 339 338 338 337 337 336 337 339 341 342 342 342 342 343 343 344 345 345 345 345 345 344 343 343 343 344 343 343 344 345 344 343 343 343 343 343 342 341 340 341 341 341 340 338 337 336 336 336 335 337 337 338 338 338 338 338 338 338
333 334 337 336 336 336 338 339 339 338 338 337 338 339 339 340 340 340 339 339 339 340 339 339 341 342 342 341 340 341 341 340 339 339 340 342 343 343 342 343 344 344 345 345 345 345 345 345 344 343 343 344 344 343 343 343 344 345 344 344 343 342 342 342 341 340 339 339 340 340 340 339 337 335 335 334 334 335 336 337 337 338 338 338 338
333 334 335 335 336 338 338 339 338 338 337 336 337 339 340 341 340 340 340 341 342 342 341 340 341 342 343 342 341 342 344 343 342 341 341 343 344 344 343 343 345 345 345 346 346 345 345 345 344 343 343 344 344 343 343 343 344 345 344 344 343 342 341 341 341 340 338 337 337 337 338 340 340 337 336 335 334 334 334 334 334 335 336 336 336
333 333 335 335 336 339 339 338 337 337 336 335 338 340 340 341 342 342 343 343 344 345 344 343 343 344 343 344 343 343 344 345 344 344 344 344 345 345 345 345 345 346 346 346 346 346 345 345 344 343 343 344 344 343 342 343 343 345 344 344 344 342 341 341 342 341 340 339 339 338 338 340 341 339 337 337 336 335 335 335 333 333 333 332 331
334 334 335 336 337 339 340 338 337 336 335 335 339 340 341 343 344 344 345 345 345 345 345 345 346 346 345 344 344 344 344 345 345 345 345 346 346 346 346 346 345 345 345 345 345 345 345 345 344 344 345 345 345 343 342 343 343 344 344 344 344 342 342 342 342 342 342 341 341 340 338 337 339 339 338 337 335 333 333 335 335 335 334 332 331
336 336 337 337 337 340 341 339 337 337 334 335 340 341 342 344 345 344 345 345 345 345 345 345 345 346 346 345 345 344 344 344 345 345 345 346 346 347 346 345 345 345 344 344 343 344 344 344 344 344 345 346 345 343 343 343 342 343 343 343 343 342 342 342 342 342 342 343 342 342 340 339 338 338 337 335 333 330 329 330 332 332 333 333 333
336 337 339 338 338 340 342 340 338 337 335 335 340 342 343 345 345 344 344 345 345 345 345 345 345 345 346 346 345 344 344 344 345 345 345 346 346 346 346 345 344 344 343 342 342 342 342 343 344 344 345 346 345 344 343 342 342 342 343 343 343 342 342 341 341 341 342 342 343 342 342 341 340 338 337 336 335 331 328 327 327 327 328 330 331
339 337 339 339 339 340 342 341 338 337 335 335 340 343 345 345 345 343 343 344 345 345 345 346 345 344 345 346 345 345 345 345 345 345 345 345 346 345 345 344 344 343 342 342 342 341 341 342 343 344 345 346 345 344 343 343 342 342 343 343 343 343 342 341 341 341 341 342 342 341 342 342 341 340 339 339 338 336 332 328 327 326 327 327 327
343 339 340 339 339 341 341 340 339 338 335 335 338 342 344 344 343 342 342 343 344 345 345 345 345 344 343 345 345 345 345 345 345 345 345 345 345 345 345 344 343 343 342 342 342 342 341 341 342 343 345 346 346 344 343 342 342 342 342 342 343 343 342 342 341 341 341 341 341 341 341 341 341 341 340 339 339 338 335 332 329 328 327 326 326
345 341 340 339 340 341 341 340 339 338 336 335 336 338 340 341 340 339 339 343 344 344 345 344 345 344 342 342 344 344 343 343 344 344 345 345 344 345 344 343 343 343 343 342 341 341 342 341 342 343 344 346 346 344 343 343 342 342 342 342 342 342 340 340 340 340 341 341 341 341 341 341 341 341 341 340 340 339 337 333 331 329 327 327 327
345 343 341 340 341 341 341 340 339 338 336 335 336 336 338 339 339 337 337 341 344 344 344 345 346 345 342 341 342 344 343 343 344 344 345 345 344 344 344 344 345 345 343 342 341 341 342 342 344 344 345 347 346 344 343 342 343 343 342 341 342 341 339 339 339 340 340 340 341 341 341 340 340 341 341 341 341 341 339 335 332 329 328 328 328
346 344 342 340 341 341 341 340 339 338 336 336 337 336 337 340 340 339 339 341 343 344 344 346 346 344 341 341 342 344 343 342 343 345 345 345 345 344 344 345 346 346 345 343 342 342 342 343 344 345 346 346 345 344 343 342 342 343 341 341 342 342 340 340 339 339 340 340 341 341 341 341 340 340 341 341 342 342 341 337 333 331 331 331 330
346 345 344 341 339 340 341 340 339 338 337 336 337 337 338 340 340 341 342 342 343 345 345 345 345 342 340 341 342 343 343 342 343 344 345 346 346 345 344 345 346 346 345 344 343 343 343 342 343 344 346 346 344 344 344 342 342 343 342 342 342 342 342 341 340 339 339 340 341 341 341 341 340 340 340 341 341 342 342 340 338 338 336 334 332
346 346 345 343 340 339 339 340 340 339 338 337 337 338 338 339 339 340 340 340 341 343 344 344 343 342 342 342 342 342 343 342 341 342 344 346 346 345 345 345 346 346 345 343 343 345 344 342 342 343 345 346 345 343 344 344 343 344 343 342 342 343 343 342 341 340 340 340 340 340 340 340 340 340 340 340 341 341 342 342 341 341 340 337 334
346 346 346 344 342 340 339 339 340 339 338 338 338 339 339 339 337 337 337 336 336 338 341 343 343 343 344 344 343 343 343 343 342 341 343 345 345 345 345 344 345 346 344 343 343 344 344 343 342 343 345 346 345 344 344 344 344 344 343 342 343 344 344 343 342 341 340 340 339 340 340 340 340 340 339 339 340 340 341 341 341 340 340 339 336
346 346 346 345 344 342 340 338 338 339 339 339 340 340 339 338 336 336 337 336 334 335 338 342 344 344 345 345 345 345 344 343 342 342 342 344 345 345 345 345 345 344 344 344 344 344 344 343 343 343 344 345 345 345 345 345 344 343 342 342 343 344 344 344 343 342 341 340 339 340 340 339 340 340 338 338 338 339 340 340 340 339 339 338 337
346 346 346 345 344 344 342 339 338 338 339 340 341 341 340 337 337 337 336 336 335 335 338 341 343 344 345 346 346 346 345 343 342 342 342 343 344 345 345 345 344 344 344 344 345 344 344 344 344 344 345 345 345 344 345 345 344 343 342 342 343 344 344 343 343 342 341 341 340 340 340 339 340 340 339 338 338 338 339 339 339 339 339 339 338
346 346 346 346 345 344 343 341 339 338 338 339 341 341 340 338 337 337 336 336 336 336 337 340 343 344 345 345 346 346 345 344 342 342 342 343 344 344 344 344 344 343 344 345 345 345 345 344 344 345 345 345 345 344 344 344 343 343 343 343 343 344 343 343 343 343 342 342 341 340 340 340 340 340 339 338 338 339 339 339 339 339 340 340 340
347 346 346 346 345 344 344 343 341 339 337 338 339 340 340 339 337 336 336 336 336 337 337 337 340 343 344 344 345 345 345 343 342 341 341 343 343 343 344 344 343 344 344 345 346 345 345 345 345 345 344 345 345 345 345 344 343 344 343 343 343 344 343 342 342 342 342 342 342 341 341 341 341 341 340 338 338 340 340 339 339 340 340 340 341
Wind_Speed
26 27 28 28 26 25 24 22 21 21 21 19 17 17 17 18 18 17 17 16 16 15 14 12 12 11 10 10 9 9 9 9 9 8 8 7 7 7 8 8 8 8 9 8 8 8 8 8 9 9 9 10 11 11 11 11 11 10 10 11 12 12 12 13 13 13 14 15 15 15 14 14 13 13 13 13 14 14 15 16 15 15 16 17 17
28 29 28 27 25 24 23 22 22 21 20 19 17 16 16 16 17 16 16 16 15 13 12 10 9 9 8 8 8 8 9 9 9 7 7 7 7 7 7 7 7 8 8 8 8 8 8 8 9 9 10 10 11 11 10 10 10 10 9 10 11 12 12 12 13 13 14 15 15 15 14 14 14 14 14 14 14 15 16 16 15 15 17 18 18
28 29 27 26 25 24 22 21 22 21 20 18 16 15 16 16 16 15 15 14 13 12 10 8 7 6 6 6 6 7 8 8 7 6 6 6 7 7 7 7 7 7 8 8 7 7 8 8 9 9 10 10 10 11 10 10 10 10 10 10 11 11 12 12 12 14 15 16 16 15 15 15 15 14 14 15 15 15 16 16 15 15 18 18 19
28 27 27 26 24 23 21 21 21 20 19 18 16 15 16 16 16 15 14 13 11 10 8 7 6 6 6 7 7 7 8 7 7 6 6 7 7 8 8 9 8 8 9 8 7 7 7 8 8 9 9 10 10 9 10 10 10 10 10 10 11 11 11 12 12 14 15 15 16 16 16 16 16 15 14 15 15 15 15 16 14 15 16 17 19
27 27 27 25 24 22 20 20 20 19 19 18 17 16 17 17 16 14 13 12 10 9 8 7 7 8 8 8 8 8 8 7 7 7 7 7 8 8 9 9 10 10 10 9 9 7 7 8 8 8 9 10 10 9 9 10 10 11 11 11 12 11 11 12 12 14 15 15 16 17 17 17 17 15 14 14 15 16 15 14 13 13 14 16 18
27 27 26 25 23 22 20 19 19 19 18 18 17 17 17 16 15 13 12 11 9 8 8 8 9 8 8 8 8 7 8 8 8 8 7 7 8 9 9 10 10 10 10 9 9 9 8 8 8 8 8 9 10 10 9 10 11 11 11 11 12 12 12 11 11 13 14 15 16 17 17 17 17 16 15 15 15 16 14 13 12 12 13 16 18
26 26 25 25 23 21 20 19 19 19 19 18 18 17 16 14 13 12 11 10 9 8 9 9 9 8 8 8 7 8 9 9 9 9 8 8 9 10 9 9 10 10 10 9 9 9 8 8 7 8 8 8 9 10 10 10 10 11 11 11 11 12 12 11 12 13 14 14 15 16 17 16 16 15 14 14 15 14 13 12 11 10 13 17 17
27 26 25 24 22 21 19 19 19 19 19 18 17 16 14 13 12 11 10 9 8 9 10 10 9 8 7 7 8 8 9 9 9 9 9 10 10 10 9 9 10 10 10 9 9 9 8 8 7 8 9 9 9 9 9 10 10 11 10 10 11 12 13 13 13 13 13 13 13 13 14 14 14 14 12 12 12 12 11 10 10 11 15 16 16
26 25 24 23 22 20 19 19 19 19 19 17 16 15 14 13 11 11 10 9 9 10 10 9 8 7 7 7 8 8 9 9 9 10 10 10 10 10 10 9 10 11 10 9 9 9 8 8 8 9 9 8 8 9 9 9 10 10 10 11 12 13 13 14 13 13 12 12 12 12 12 12 13 12 11 10 10 9 9 10 11 14 16 15 15
26 24 24 22 21 20 19 19 18 18 18 17 15 14 13 11 11 10 9 10 10 9 9 9 8 7 7 7 8 8 9 9 9 10 11 10 10 11 10 9 11 11 11 10 10 9 8 8 8 9 10 9 9 9 9 9 9 10 12 13 13 14 13 13 13 13 12 12 12 12 12 12 13 13 12 11 10 10 11 12 14 15 15 14 13
25 24 24 22 20 19 19 18 17 17 16 16 14 13 11 11 10 10 10 10 10 9 8 8 8 7 7 7 7 8 9 9 10 10 11 10 10 10 10 10 11 11 11 10 10 9 8 8 8 9 9 9 9 9 9 9 10 11 12 13 13 14 13 13 12 12 12 11 11 12 12 12 13 14 13 13 13 13 13 13 15 15 14 13 12
25 24 23 21 20 19 18 16 16 15 14 14 12 12 11 11 10 10 10 10 10 9 8 7 8 8 8 8 7 8 9 9 10 10 11 10 9 10 10 10 10 10 10 10 9 9 9 8 8 9 9 9 9 9 9 9 10 11 12 12 13 13 12 11 11 11 11 10 11 11 12 13 15 16 16 15 15 14 13 14 15 14 13 12 11
25 24 23 21 20 18 17 16 14 13 12 12 11 12 11 11 11 11 10 9 9 8 8 7 8 9 8 8 8 9 9 9 10 10 10 10 9 10 10 10 10 10 10 9 9 10 10 10 10 10 10 9 8 9 9 9 10 11 12 12 12 12 11 10 10 11 11 11 11 12 13 15 17 18 17 15 14 13 14 14 14 14 13 12 11
26 25 23 20 20 18 17 15 14 13 12 11 10 11 11 11 11 11 10 9 9 8 7 7 8 9 9 9 8 8 9 10 10 9 9 10 10 10 10 10 10 10 10 9 10 11 11 12 12 11 11 10 9 9 9 9 10 11 12 12 11 11 10 10 11 11 11 11 12 13 14 16 17 17 16 14 13 13 13 14 14 13 13 12 11
26 24 22 20 20 18 17 16 15 13 12 10 9 10 11 11 10 10 10 9 8 8 7 7 8 9 9 9 8 8 9 10 10 10 9 9 10 10 10 9 9 10 10 9 10 11 12 12 12 12 13 12 11 10 9 10 10 11 12 11 11 11 10 10 10 10 10 10 11 13 15 16 15 15 14 14 13 13 13 13 13 13 12 11 11
25 23 20 20 20 18 17 16 16 14 12 10 9 10 11 11 10 10 10 9 8 8 7 7 8 8 9 9 8 8 8 9 10 10 8 8 9 10 10 9 9 9 10 10 11 12 12 12 12 12 13 12 12 11 10 10 11 11 11 11 10 10 10 9 9 10 10 10 10 12 14 15 14 14 13 13 12 12 12 13 12 12 11 10 10
25 22 20 20 19 18 16 16 15 14 12 9 10 11 10 10 9 9 9 9 8 8 7 8 8 8 9 9 8 7 8 9 10 9 8 8 8 9 10 9 9 9 9 10 11 12 12 12 12 12 12 12 12 12 11 11 11 11 11 10 10 10 9 9 9 10 10 10 10 11 13 14 13 12 12 11 11 11 12 12 11 11 10 9 8
25 22 20 19 18 17 16 15 15 13 11 10 11 11 10 10 9 9 9 8 8 7 7 8 8 9 9 9 9 7 8 9 9 9 8 8 8 9 10 9 9 9 10 10 11 11 12 12 13 12 12 12 12 12 12 12 12 11 10 10 9 9 9 8 8 9 10 10 9 10 11 12 11 11 10 10 10 11 11 10 10 9 9 8 7
24 22 20 19 18 17 16 15 14 13 12 12 12 11 10 10 9 9 8 8 7 8 8 9 9 9 9 10 9 8 7 8 9 9 9 8 8 9 9 9 8 9 10 9 10 10 11 12 12 12 12 13 13 12 12 12 12 11 10 10 9 8 8 8 8 9 9 9 9 9 10 10 10 10 10 10 9 9 9 8 8 8 7 7 7
24 22 21 20 18 17 17 15 14 13 13 14 13 12 11 10 10 9 8 8 8 9 9 9 9 9 10 9 10 9 7 8 9 8 8 8 8 8 9 9 8 9 9 9 9 10 11 11 11 11 11 12 13 12 11 11 11 10 9 9 9 8 7 8 8 8 9 9 9 9 10 10 9 9 9 8 8 7 7 7 7 6 6 6 6
24 23 21 20 19 18 17 15 15 14 15 15 14 13 12 11 10 10 9 9 9 9 10 10 9 9 10 9 10 10 9 8 9 8 8 8 8 8 8 8 8 8 9 9 9 10 10 11 11 11 11 11 12 11 11 11 11 10 9 8 9 8 7 7 8 8 8 8 9 9 9 9 8 8 7 6 6 6 6 5 5 5 5 5 5
25 24 21 20 19 19 17 16 16 16 16 15 14 14 12 12 11 11 11 10 10 10 11 10 10 9 10 9 9 10 9 9 9 8 8 8 8 8 8 8 8 8 8 8 9 9 9 10 10 10 10 11 11 11 10 11 11 9 8 8 8 8 8 8 8 8 7 7 8 8 8 7 7 6 5 5 5 4 4 3 4 4 4 5 5
26 25 22 21 20 19 18 16 16 16 16 15 15 14 13 13 12 12 12 12 11 11 11 10 10 9 9 9 10 10 9 9 9 8 8 8 8 8 8 8 8 8 8 8 9 9 9 9 9 10 10 11 11 11 10 10 10 8 7 8 8 8 8 8 8 7 7 6 6 6 6 6 6 5 4 3 3 3 2 2 3 3 3 4 5
26 24 22 21 20 19 17 16 16 16 16 15 15 15 14 13 13 13 12 12 11 11 10 9 10 9 10 10 10 10 9 9 9 8 7 7 8 8 8 8 8 8 8 8 9 9 9 9 9 10 11 11 11 10 10 10 8 7 7 7 7 7 8 8 8 7 6 6 5 4 4 5 5 4 3 2 2 1 1 2 2 3 3 4 4
24 22 21 20 19 19 17 17 17 16 16 16 15 15 15 14 13 13 12 11 10 10 10 9 9 9 10 10 10 10 9 9 9 8 7 7 7 8 9 9 9 9 9 9 10 10 10 9 10 10 11 11 11 10 9 9 8 7 8 7 7 7 7 7 7 7 6 5 4 3 3 4 4 3 3 2 2 1 1 1 2 3 3 3 3
23 22 22 20 19 20 18 18 17 17 17 16 15 14 15 14 13 13 12 11 10 10 10 9 9 9 9 9 9 9 9 9 9 8 8 8 8 9 10 10 11 11 11 11 11 11 11 10 10 10 10 10 10 9 8 8 8 8 8 8 7 7 6 6 6 6 6 5 4 3 3 4 4 3 2 2 2 2 2 1 2 3 3 3 3
23 23 22 20 20 20 19 18 17 17 17 16 15 14 14 13 13 12 12 11 11 10 10 10 10 9 9 9 9 9 9 9 9 9 9 9 9 10 11 12 12 12 12 12 12 12 11 10 9 9 8 8 8 8 8 8 8 9 9 8 8 7 6 6 5 6 5 5 4 3 3 4 4 4 4 4 3 3 2 2 2 3 3 3 3
22 23 23 21 21 20 19 18 17 17 17 16 15 14 14 13 12 12 12 12 11 11 10 10 10 9 9 9 9 9 9 8 9 10 10 10 11 11 12 12 12 11 11 11 12 11 11 10 9 8 8 7 7 7 7 8 8 9 9 9 8 8 7 6 6 6 6 5 4 4 4 4 4 5 5 6 5 4 3 3 3 3 3 3 3
23 23 22 21 21 20 19 18 18 17 17 16 16 15 14 13 13 13 13 13 12 11 11 10 10 10 10 10 9 9 9 8 9 10 11 11 11 11 11 11 10 9 9 10 10 10 9 9 8 7 7 7 7 7 7 7 8 9 10 9 9 8 8 7 7 7 7 6 5 4 4 5 5 5 5 5 5 4 4 4 4 4 4 3 3
23 22 22 21 20 20 19 18 18 17 17 17 16 15 14 14 13 13 13 13 12 11 11 11 10 10 11 11 10 9 9 9 9 10 11 11 11 11 11 10 9 9 9 9 9 9 8 8 7 7 7 7 6 7 7 7 8 9 9 9 9 8 7 7 8 8 7 7 6 5 4 5 5 5 5 5 5 5 5 4 4 4 4 4 4
23 23 22 21 21 20 19 18 18 17 17 17 16 15 14 15 14 14 14 13 13 12 11 11 11 11 12 12 11 11 10 10 10 10 11 11 11 11 10 10 9 9 8 8 8 8 7 7 7 7 7 7 6 6 7 7 7 8 9 9 9 9 8 7 7 8 8 7 6 5 5 5 4 4 4 4 4 4 4 4 4 4 3 4 4
24 23 22 21 21 20 19 18 18 17 18 17 17 16 15 16 15 15 14 13 12 11 11 11 11 11 12 12 12 11 11 11 12 11 11 10 11 11 10 10 9 9 8 7 7 6 6 6 7 6 6 5 5 5 6 6 6 6 8 9 9 9 8 7 7 7 7 6 6 5 5 4 4 4 4 3 3 3 3 3 3 3 3 3 4
24 23 22 21 20 19 19 19 18 18 18 18 17 16 16 16 15 15 14 13 12 11 11 11 11 11 11 11 11 11 11 11 12 11 11 10 10 10 9 9 9 9 8 7 6 6 7 6 6 6 5 4 4 4 4 5 5 5 6 7 8 8 8 8 7 7 6 6 5 5 5 5 5 5 4 3 3 3 3 4 4 4 4 4 4
24 23 22 22 20 19 19 19 19 19 19 18 18 17 17 17 16 15 14 13 12 11 11 11 11 10 10 10 10 10 9 10 10 11 11 9 9 9 9 9 8 8 8 7 7 7 7 6 6 5 4 4 4 3 2 3 4 5 5 6 7 8 8 8 8 7 7 6 5 5 5 5 6 6 6 6 5 4 4 4 4 4 4 5 5
24 24 23 22 21 20 20 19 20 20 20 20 19 19 18 17 16 15 14 13 12 11 11 11 10 10 9 9 9 9 8 8 9 9 9 8 8 8 8 8 7 7 7 7 7 7 6 6 6 5 4 3 4 3 2 2 3 5 5 6 7 8 8 8 8 8 8 8 7 6 5 6 7 8 8 8 7 6 5 5 4 4 4 5 5
25 24 23 22 22 20 20 20 20 21 21 21 20 20 18 17 16 15 14 13 12 11 10 10 9 9 9 8 8 8 8 8 9 9 9 8 8 7 7 7 6 6 6 7 7 7 6 6 7 6 3 1 3 2 2 2 3 4 5 6 6 7 7 6 7 7 7 8 9 9 8 6 6 7 7 7 7 6 5 5 5 5 5 5 5
25 25 23 24 23 22 21 21 21 21 22 22 21 21 19 18 16 15 14 13 12 11 10 9 8 9 9 8 8 8 8 8 9 9 8 8 7 7 7 7 7 7 7 8 8 7 7 7 8 6 4 2 1 0 2 3 3 4 5 5 6 6 6 5 5 5 6 7 8 9 9 7 6 7 7 7 7 6 4 4 5 5 5 5 5
24 24 24 24 23 22 21 21 21 22 22 23 22 21 20 18 16 15 14 13 12 11 10 9 7 8 9 8 7 8 8 8 8 8 8 8 7 7 7 7 7 8 8 8 8 8 8 8 8 7 5 4 4 2 2 2 2 4 4 4 5 5 4 3 3 4 4 5 6 7 8 8 7 7 7 7 8 7 5 4 5 5 6 6 6
24 25 24 24 24 23 22 22 22 23 23 23 23 22 20 19 17 16 16 15 13 12 10 8 7 7 8 8 7 7 8 8 8 8 8 7 7 7 7 6 7 7 8 8 8 8 8 8 9 8 6 6 6 5 2 2 1 2 2 3 3 3 2 1 2 2 3 5 6 7 7 7 8 8 7 8 9 9 8 7 6 6 6 6 6
23 25 25 25 25 24 23 23 24 24 24 25 24 23 22 21 20 18 18 17 14 12 10 9 7 7 8 8 7 7 8 8 8 7 7 7 7 7 7 6 6 6 6 6 6 6 8 9 10 9 8 7 8 7 5 3 2 2 1 1 0 0 0 1 1 2 3 4 5 6 6 6 6 7 6 7 8 9 9 9 8 8 7 7 7
23 25 26 26 26 25 25 25 25 25 25 27 27 24 24 23 22 20 20 18 16 14 12 10 9 7 8 9 8 7 7 8 8 7 7 7 7 7 6 6 5 5 5 4 5 5 7 8 9 9 9 8 9 8 7 6 5 4 3 3 3 3 2 2 2 2 3 4 5 5 6 5 5 6 6 6 7 8 8 9 9 8 8 7 7
25 26 27 27 26 26 26 26 26 27 27 27 27 25 24 24 22 20 19 19 16 14 12 10 9 8 8 9 8 7 8 8 8 8 7 7 7 6 6 5 5 5 5 5 4 5 6 7 8 8 8 8 8 8 6 7 8 6 5 5 5 4 3 3 3 2 2 3 4 5 5 5 5 6 6 6 7 7 8 8 8 8 8 7 7
26 26 28 27 27 27 27 27 27 28 28 27 28 26 24 23 22 19 18 18 16 13 11 9 9 9 9 10 9 8 8 8 8 8 7 6 6 6 6 6 6 5 5 4 4 5 6 6 6 7 8 8 7 7 5 6 6 5 4 4 5 5 3 1 2 2 2 2 4 5 5 5 6 6 6 7 7 8 8 8 8 7 7 7 7
29 28 28 29 29 29 29 28 29 29 28 28 27 26 25 23 22 20 18 17 15 13 12 11 10 10 10 10 10 8 8 8 8 8 7 6 6 7 7 7 7 6 5 4 4 4 5 6 6 7 8 8 8 8 6 5 4 3 4 3 4 5 4 3 3 2 2 4 5 6 6 5 6 6 6 6 6 7 8 8 8 8 7 8 7
33 30 29 30 29 30 30 29 29 30 29 28 27 26 26 25 23 21 20 19 17 16 15 14 13 13 12 11 10 8 8 8 8 8 7 7 7 8 8 8 7 6 5 5 4 4 5 7 8 8 9 9 9 9 7 6 5 4 3 2 3 3 5 6 5 2 3 6 7 7 7 6 6 5 5 5 5 6 7 8 8 8 8 8 8
35 33 31 29 29 29 30 30 30 31 30 28 27 27 27 26 25 23 23 22 21 20 19 17 15 14 12 10 9 8 8 8 8 8 8 8 8 8 9 8 7 6 6 5 5 5 5 6 7 8 9 9 10 10 9 9 8 6 5 3 2 4 5 6 6 5 5 5 7 8 8 7 6 5 4 4 5 5 5 6 7 7 8 8 8
36 34 33 31 29 29 30 31 31 31 31 30 28 28 28 28 27 25 24 23 22 21 19 18 16 14 12 10 9 9 8 8 8 9 9 9 9 9 9 8 7 6 6 6 6 5 5 5 6 8 9 10 10 10 10 11 11 9 7 5 4 4 6 6 6 7 7 6 6 8 8 7 6 5 3 3 4 4 5 6 6 6 6 7 7
37 36 35 34 31 30 30 31 31 31 31 31 30 29 28 28 27 26 25 24 22 20 18 18 17 15 13 11 10 9 8 8 9 9 9 10 10 10 10 9 8 7 7 6 5 6 6 6 6 7 8 9 9 10 10 11 12 10 8 7 6 5 5 5 6 6 8 9 8 8 7 7 7 6 4 4 4 5 5 5 6 5 5 6 6
39 38 37 36 34 31 30 31 32 32 32 32 31 30 29 28 27 27 26 25 23 21 19 18 17 16 15 13 12 10 10 10 10 10 10 11 10 10 11 10 8 8 7 6 6 6 6 5 5 5 7 7 8 9 10 11 11 9 8 8 7 5 5 5 5 5 7 9 9 9 8 7 7 7 6 5 4 5 5 5 5 5 5 5 6
40 39 38 37 36 34 32 31 32 33 33 33 32 31 30 29 28 28 28 27 25 23 21 19 19 18 17 15 14 12 11 11 11 11 11 12 11 11 11 10 9 8 8 7 7 6 6 5 4 4 5 6 7 7 8 10 10 10 9 9 8 6 5 4 5 5 5 7 8 9 9 8 8 8 7 6 5 5 5 5 5 5 5 5 6
40 40 40 39 39 37 35 33 31 32 34 34 33 32 31 30 29 28 29 28 27 26 24 22 21 20 19 18 16 14 13 13 13 13 13 13 12 12 12 11 11 10 9 9 8 7 6 5 5 4 4 5 6 6 8 10 11 11 10 9 9 7 6 5 5 5 6 7 7 7 7 8 8 9 8 6 5 5 5 5 5 4 4 4 4
Wind_Direction
142 140 138 138 141 144 145 145 143 141 140 140 139 138 135 136 138 137 135 132 131 130 128 128 126 124 122 120 121 121 115 110 106 105 104 101 101 106 110 113 113 111 107 107 110 110 109 109 108 111 117 121 120 120 116 112 111 112 109 107 105 101 99 99 98 95 95 98 99 100 100 102 103 101 101 102 104 105 102 97 93 87 76 67 69
141 140 138 138 139 141 143 146 146 144 141 140 140 140 138 137 137 135 133 131 129 127 126 124 122 120 119 119 119 115 109 105 101 97 91 89 90 93 99 106 113 114 111 112 112 112 111 112 114 115 119 124 125 124 122 121 120 118 112 107 105 103 103 100 99 99 100 102 104 106 107 105 104 104 104 105 107 106 102 98 92 84 74 70 77
141 139 137 136 137 139 141 145 146 146 143 142 144 144 142 139 137 134 132 130 127 125 122 121 121 118 115 112 107 105 105 102 101 97 87 85 88 90 94 95 103 115 117 116 117 118 118 117 117 118 121 124 126 127 129 130 130 124 115 113 109 106 107 105 106 107 108 108 108 108 108 104 102 103 105 105 105 102 100 96 89 81 73 75 88
142 139 137 134 136 137 141 146 147 148 146 146 147 146 143 141 140 137 134 131 129 128 128 128 126 118 110 107 103 102 105 108 107 102 96 95 97 96 95 95 102 116 119 121 124 124 123 124 122 123 123 123 125 129 133 133 131 125 122 122 115 111 110 109 112 113 112 111 110 108 105 103 102 102 103 103 103 100 99 94 87 81 74 83 96
144 141 137 135 138 138 143 149 149 150 149 149 148 147 145 145 143 140 138 137 137 136 134 131 123 117 111 107 106 107 109 112 109 104 103 102 103 102 103 108 115 123 126 128 124 122 125 127 127 124 123 125 127 129 132 132 132 131 131 127 118 117 114 110 114 114 113 113 111 108 103 101 100 100 100 103 104 102 98 93 88 79 76 94 102
145 141 139 139 140 141 148 151 150 151 150 149 149 150 149 148 146 143 143 142 141 137 133 131 125 118 111 107 106 109 111 113 111 108 105 101 104 107 112 117 120 121 121 121 118 120 127 126 127 125 125 129 126 127 130 132 133 133 132 127 122 121 114 112 119 117 114 113 111 108 104 102 99 97 97 100 101 100 96 91 86 76 83 104 105
145 143 143 142 142 146 151 152 151 151 150 149 150 151 150 148 148 146 145 144 141 136 134 133 126 119 113 107 103 103 106 109 111 109 105 103 107 110 112 115 113 111 111 115 118 121 125 126 129 131 131 129 125 126 130 131 131 133 131 126 123 120 117 122 124 118 114 113 110 108 107 105 102 99 98 97 97 98 96 92 84 79 98 110 105
147 146 146 144 145 148 150 151 150 151 150 149 151 151 151 152 152 150 149 146 140 136 135 132 124 118 114 105 101 101 104 107 107 107 105 105 107 106 107 108 106 107 110 114 115 112 113 116 124 132 128 125 124 127 130 128 127 131 131 125 121 122 127 129 122 116 114 112 107 106 107 106 105 104 105 104 103 102 98 94 89 95 108 109 103
150 149 148 147 146 148 149 150 149 150 151 151 153 155 157 158 155 152 150 143 138 139 135 130 122 116 112 105 105 105 106 106 105 106 105 106 105 103 105 104 102 102 103 103 100 96 98 108 117 119 116 118 120 122 125 123 123 129 131 126 124 127 130 126 117 114 114 110 106 105 104 105 105 108 110 110 108 104 101 101 102 106 108 105 101
152 151 150 150 148 148 149 150 150 151 152 154 157 160 161 158 155 152 147 142 139 140 134 127 123 118 113 107 105 105 106 105 106 107 106 106 103 102 104 101 99 98 96 92 90 88 93 102 103 103 105 112 113 114 118 120 122 127 131 128 126 127 124 116 112 112 111 108 107 103 100 102 107 110 110 111 111 109 109 109 108 108 105 102 99
153 152 153 153 148 147 149 149 150 151 153 157 161 162 160 156 154 153 148 144 142 139 134 128 125 125 122 115 110 106 106 107 106 108 106 105 104 104 103 99 96 95 91 86 87 93 98 97 94 97 102 106 107 110 111 112 114 117 121 119 117 117 112 107 106 105 104 104 103 101 100 102 107 111 112 113 113 112 113 110 107 105 101 98 95
153 153 153 151 147 146 149 149 149 150 153 156 159 158 157 157 156 154 150 146 142 139 138 134 133 134 130 121 117 114 110 109 107 108 106 104 104 104 102 98 94 90 87 84 91 97 98 97 95 96 97 99 103 104 101 101 103 102 104 104 105 106 104 101 99 98 97 98 97 98 100 104 106 110 113 113 112 113 112 108 105 103 98 95 94
153 153 152 149 149 150 151 151 151 149 152 155 156 157 158 158 154 152 149 145 142 141 145 144 141 139 132 123 118 117 115 112 110 111 109 109 109 105 104 102 99 94 90 90 94 94 94 94 92 95 97 98 97 96 94 93 92 92 93 95 99 100 99 96 94 95 95 94 93 97 104 108 109 112 114 114 114 113 111 109 106 102 99 97 94
153 153 151 152 153 153 154 154 155 153 155 159 158 159 158 156 153 151 146 143 145 148 152 149 145 139 131 124 118 116 117 118 116 115 112 114 114 109 108 107 107 101 94 91 93 92 92 90 89 91 92 92 90 91 91 90 91 91 93 94 95 96 94 93 93 92 92 94 95 103 109 110 113 116 117 117 116 113 111 109 105 102 99 96 89
155 153 153 156 156 155 157 158 160 159 162 165 164 162 158 157 156 150 143 144 149 154 155 147 143 138 133 126 119 118 119 118 117 116 115 117 115 111 109 109 109 100 95 95 95 92 89 88 87 87 87 88 88 89 91 92 93 93 95 95 94 95 92 91 91 90 88 91 100 110 112 110 114 117 116 116 115 112 111 108 104 100 96 91 84
157 155 156 159 159 159 161 163 163 163 166 169 168 163 160 160 157 150 147 151 155 157 153 142 139 137 134 126 119 118 117 115 113 113 114 118 114 110 109 108 105 97 100 102 99 96 91 87 85 85 87 88 88 91 93 92 91 91 94 96 97 96 93 91 90 91 90 90 100 113 112 110 113 115 115 115 114 112 109 106 102 98 93 87 78
161 158 160 162 162 162 165 166 163 165 170 172 171 165 162 161 155 151 152 157 157 156 149 139 138 135 134 126 120 120 119 115 111 111 113 117 114 110 108 106 103 101 108 108 103 100 95 90 84 84 86 88 89 91 92 92 91 91 93 97 99 98 94 91 91 94 92 90 97 110 111 110 112 114 115 114 111 109 105 102 99 96 91 84 76
165 163 162 163 164 164 167 167 167 173 178 175 171 164 160 158 154 154 154 156 155 151 147 142 139 138 137 127 123 124 120 115 111 113 113 116 115 109 105 104 103 103 112 111 103 100 97 93 88 86 88 90 89 89 91 92 91 91 95 98 98 97 96 93 93 96 94 92 96 106 109 108 111 111 111 108 104 102 100 99 96 93 88 83 77
169 167 165 165 166 167 169 172 176 181 183 175 164 159 158 157 157 158 156 155 152 149 148 146 143 141 139 130 125 123 120 119 115 112 110 114 116 110 108 109 104 103 112 110 99 97 97 93 90 89 91 92 89 88 89 89 88 89 93 97 99 98 99 99 97 99 97 95 96 102 105 106 108 109 107 101 97 97 96 95 92 89 84 78 72
171 170 170 170 169 173 176 179 184 182 177 169 160 159 158 159 159 159 156 154 151 149 149 149 148 146 143 135 128 126 128 125 114 110 110 117 121 116 115 113 108 104 110 109 97 96 97 93 88 88 88 89 91 91 90 89 88 87 88 91 98 101 104 108 106 104 102 99 97 100 102 103 105 105 105 101 98 97 93 93 91 87 79 70 65
174 174 175 177 176 179 181 182 181 175 171 168 163 160 158 160 160 157 154 154 152 152 154 153 152 150 145 139 133 131 135 129 119 118 116 121 126 120 117 115 112 107 108 107 100 99 97 91 86 85 84 85 89 91 89 89 86 85 85 87 94 101 106 110 110 110 107 105 102 103 103 104 108 109 109 106 102 100 95 93 89 83 71 62 57
177 178 180 183 184 183 182 178 174 170 170 169 164 161 159 161 160 158 157 157 157 157 159 156 155 153 147 143 137 134 137 131 124 123 116 119 123 119 117 116 117 111 108 107 103 99 94 89 85 84 82 82 84 86 86 85 84 81 81 85 92 101 108 111 111 112 112 111 108 110 112 112 115 116 113 106 100 100 95 89 83 75 63 55 50
181 182 184 186 186 182 176 173 171 170 172 169 165 163 161 161 161 160 161 162 162 161 160 157 158 156 149 146 140 137 138 133 128 125 120 121 121 118 116 114 116 112 110 113 107 100 93 88 83 81 80 79 81 83 82 80 82 83 83 86 93 101 107 109 109 110 110 111 114 118 119 117 118 116 110 105 97 94 89 80 74 67 53 47 43
184 185 185 185 183 176 171 174 173 173 172 168 168 165 161 163 165 163 163 165 164 163 161 158 161 158 152 148 144 143 140 137 134 131 129 130 125 121 117 116 117 115 115 113 106 100 94 88 82 81 79 77 78 79 79 77 79 80 82 86 92 100 103 105 105 105 105 106 113 116 118 121 126 125 120 121 112 98 97 83 67 55 45 40 36
185 185 182 181 180 173 172 178 177 175 173 169 169 166 164 166 166 162 163 165 164 162 160 161 162 157 153 149 148 147 143 141 140 139 138 135 126 120 119 119 117 114 112 105 101 100 97 93 87 84 79 76 76 78 81 81 80 75 75 81 87 95 98 100 101 99 99 99 105 104 106 113 118 128 137 152 154 144 127 86 56 47 44 35 27
186 184 180 179 180 176 175 179 178 175 174 172 171 169 168 169 165 162 164 165 162 160 159 159 157 153 151 150 152 152 147 146 145 144 144 139 130 124 121 118 115 113 111 108 106 104 101 96 88 84 80 80 81 83 87 89 88 81 77 81 85 89 91 95 95 92 88 85 87 85 86 91 87 91 108 138 150 138 120 82 54 49 44 33 23
187 184 181 180 180 178 178 180 178 177 176 173 174 173 171 168 165 165 165 164 160 160 157 154 152 148 147 147 151 153 152 151 148 146 144 142 136 129 125 121 119 116 115 115 112 108 103 98 91 87 84 84 86 88 93 94 94 90 85 85 86 88 88 90 90 87 84 79 80 79 81 86 82 77 81 100 117 122 113 84 58 50 51 44 32
187 185 184 181 179 179 180 181 179 179 178 175 177 175 171 167 167 166 163 161 159 157 154 150 148 145 143 142 145 150 153 152 148 144 142 141 137 134 132 129 128 123 120 117 111 108 104 100 96 92 90 88 90 93 96 96 94 94 92 89 88 88 90 90 89 86 84 82 82 86 88 86 84 84 84 90 100 107 100 83 68 62 70 67 53
189 185 185 183 180 180 181 182 181 180 179 177 177 175 172 169 166 164 160 158 158 157 153 147 143 143 145 143 142 145 148 149 146 144 142 140 139 138 138 138 137 132 127 118 110 107 103 101 97 93 91 90 93 95 98 99 96 96 95 94 93 93 95 94 91 87 82 79 78 79 83 83 84 84 85 84 85 87 84 81 78 71 70 69 63
189 185 185 184 183 183 182 183 182 181 181 178 177 176 175 171 165 163 160 158 159 158 152 146 141 141 145 146 143 144 145 146 147 145 143 142 141 141 141 143 142 138 130 120 113 111 109 106 101 95 92 89 88 88 92 100 100 97 96 96 99 101 103 101 96 90 84 80 76 73 73 78 82 79 77 75 72 72 72 72 72 70 65 60 58
190 186 186 185 186 186 183 183 182 181 182 178 176 176 174 170 165 164 162 162 162 159 154 148 144 140 141 146 146 147 148 148 149 149 147 146 146 146 148 149 146 142 134 127 123 123 123 117 111 104 95 88 80 77 80 90 101 100 96 96 100 102 104 103 99 95 89 84 80 76 73 76 82 81 72 64 60 60 58 58 56 57 55 47 39
191 188 186 188 189 189 184 182 182 182 181 178 175 174 173 170 166 165 165 166 166 163 158 151 146 143 143 147 148 149 150 151 152 154 154 154 154 154 154 155 153 148 141 140 140 140 140 133 128 119 104 91 75 71 71 76 95 106 104 100 101 101 98 95 94 95 91 86 80 74 72 72 76 75 69 60 52 45 37 35 35 34 32 22 14
191 189 188 189 191 191 186 182 182 182 179 177 175 172 172 171 168 166 165 166 166 166 162 154 150 148 148 151 151 151 152 154 157 159 163 164 164 161 160 162 162 158 155 160 163 159 157 154 146 133 115 95 72 63 67 70 82 101 112 107 104 100 94 91 89 91 90 85 79 70 69 70 70 67 64 61 51 41 31 26 24 17 12 4 0
192 190 190 191 192 191 188 184 183 181 178 177 174 171 171 172 169 165 162 163 164 164 163 159 155 151 151 156 156 156 157 160 162 167 171 171 171 167 165 167 168 168 172 178 182 177 174 174 167 154 135 106 69 47 49 67 76 92 111 110 106 102 97 94 89 85 80 75 72 68 69 70 70 65 60 58 52 44 36 27 18 7 0 356 353
197 193 192 192 192 192 191 187 185 182 179 177 174 171 171 171 169 164 161 160 159 160 163 163 160 156 153 157 165 169 170 173 171 173 177 178 176 171 169 173 176 177 182 191 194 190 188 189 186 178 160 113 59 36 43 83 85 94 108 109 104 103 101 97 89 81 72 66 61 57 61 65 66 63 59 56 50 45 41 33 21 7 359 355 356
200 196 194 194 193 193 192 190 187 183 179 177 174 172 172 171 169 166 164 163 160 159 164 167 169 167 161 160 170 177 182 186 183 180 181 181 181 179 181 186 195 198 196 201 204 202 200 199 197 195 188 120 42 44 83 101 99 100 109 107 101 102 103 95 85 77 68 60 54 49 49 54 59 56 53 46 38 37 40 39 33 22 15 10 8
202 199 196 196 195 193 193 192 190 186 181 177 176 175 174 173 171 169 168 166 163 160 164 171 177 177 172 169 176 184 189 190 187 186 185 185 189 194 195 198 209 217 214 210 209 211 211 207 203 207 224 263 311 59 107 104 99 96 98 99 99 101 101 90 75 64 54 47 42 41 42 46 48 43 40 34 29 31 36 37 32 26 24 23 21
204 201 199 200 198 195 195 193 191 189 184 179 178 178 176 175 175 173 171 167 162 160 162 168 174 178 177 177 183 190 193 193 189 188 186 186 192 199 203 204 211 219 220 217 217 217 216 212 208 210 227 245 253 247 154 128 94 84 82 89 101 104 97 80 60 44 33 25 21 24 28 33 37 36 37 38 38 41 44 38 29 26 26 29 32
207 205 203 203 202 199 197 195 193 192 187 182 182 181 179 178 178 177 174 170 167 167 167 165 165 173 178 180 185 189 193 196 192 188 187 190 195 202 207 205 206 210 213 215 216 217 215 212 210 210 220 230 240 252 233 191 131 65 70 81 101 107 102 75 42 24 12 5 0 0 2 8 19 29 37 43 46 49 51 50 44 41 38 37 42
209 208 205 205 206 203 200 197 195 194 190 186 186 186 184 182 182 183 180 177 176 175 174 171 168 172 181 185 187 190 196 200 196 191 190 195 198 202 209 206 202 201 201 205 208 213 213 213 213 213 221 229 234 248 257 247 256 290 323 14 6 113 187 277 308 330 348 352 349 350 350 352 5 20 31 39 44 47 51 53 52 52 49 48 49
211 210 208 208 208 205 203 200 196 196 194 189 189 191 189 187 188 189 186 182 181 181 180 179 177 177 187 193 195 197 202 203 201 198 195 198 199 200 209 212 203 194 196 203 206 208 212 215 216 217 223 231 236 242 253 258 262 275 293 311 317 312 291 266 268 288 322 341 347 350 352 0 14 22 30 38 44 46 48 50 50 50 51 52 53
211 210 211 210 209 208 207 204 199 198 198 194 194 196 194 193 194 195 191 187 185 184 182 181 181 183 192 197 197 200 205 206 204 203 200 199 199 202 213 215 205 198 204 213 215 212 214 217 219 221 222 227 234 235 242 256 257 263 285 307 316 313 291 250 248 272 307 333 347 353 356 7 22 32 40 45 48 48 50 51 50 49 51 52 53
213 211 212 211 211 210 209 207 203 200 200 199 199 201 199 198 199 199 195 192 190 187 183 183 187 190 195 198 198 199 203 206 205 204 205 203 204 207 214 217 213 209 210 221 228 224 223 223 221 222 221 217 218 219 233 254 246 243 268 294 309 311 308 250 248 278 311 341 354 358 2 11 15 22 37 44 44 46 49 53 56 56 55 52 50
216 214 212 212 212 212 211 209 206 204 202 201 203 204 203 202 201 199 198 198 196 192 188 189 191 191 195 198 197 196 198 204 208 208 208 208 210 213 216 219 220 219 220 229 234 232 233 232 226 223 220 211 205 210 222 230 213 221 257 288 308 313 327 322 302 309 344 356 357 356 1 10 8 7 19 28 31 40 48 54 58 59 55 50 47
217 216 213 212 212 212 212 212 210 208 205 203 204 205 205 204 202 199 200 203 201 199 196 193 191 188 190 196 196 196 198 202 209 212 211 213 215 215 216 216 220 224 229 231 229 231 233 232 229 227 225 216 207 211 222 224 218 234 262 297 331 333 337 327 318 341 7 359 359 359 0 6 7 6 11 13 13 27 42 51 55 54 52 49 48
219 218 215 213 213 213 213 213 213 211 209 206 205 206 206 206 205 202 201 203 203 202 200 195 191 186 187 193 195 197 200 203 211 214 215 218 217 216 215 212 213 220 226 226 224 226 229 227 227 228 228 224 216 218 229 239 245 254 258 257 310 340 339 333 325 328 346 358 3 1 360 6 13 16 20 15 12 20 31 40 45 46 48 50 49
220 220 218 215 214 214 214 214 215 215 213 210 207 208 208 208 209 208 206 205 206 205 202 197 193 189 188 194 199 199 202 206 211 215 217 219 218 216 216 212 208 214 220 222 225 229 226 224 225 228 230 231 229 229 236 246 253 260 256 241 261 314 327 334 326 317 327 343 0 3 1 10 18 19 27 31 31 33 30 32 38 42 47 48 50
221 222 220 217 215 215 216 215 216 217 216 213 211 210 211 210 210 212 212 211 211 209 206 201 197 195 194 199 204 206 207 210 212 215 216 217 217 217 217 213 207 212 218 219 226 227 221 221 224 228 233 237 239 240 243 248 253 258 253 240 252 287 311 325 320 311 313 320 342 1 360 10 22 21 25 34 41 41 36 33 36 41 45 46 50
222 223 223 220 217 216 217 216 217 218 218 216 214 213 214 213 212 214 216 216 214 213 211 207 204 203 203 204 208 210 212 214 215 215 215 216 216 216 217 214 207 209 216 218 221 220 216 220 222 226 234 237 240 244 246 247 249 250 246 240 247 271 294 311 315 311 307 309 327 342 343 354 15 20 21 26 33 39 44 45 46 49 49 52 55
222 224 225 223 219 217 217 217 218 219 219 219 217 215 216 216 215 215 218 218 218 215 213 212 212 210 209 208 209 211 214 216 216 215 215 216 216 215 216 213 208 208 212 214 217 217 214 213 215 220 227 230 237 240 241 242 242 241 241 239 240 256 278 295 307 310 310 313 321 328 330 335 347 356 2 13 23 30 43 54 56 55 53 54 56
221 223 224 223 220 219 218 218 218 219 220 220 219 218 217 217 217 216 219 220 220 219 216 215 215 214 213 211 210 213 217 219 218 216 215 217 216 216 217 215 213 213 213 214 213 209 205 202 207 217 224 232 238 237 237 239 240 240 239 234 232 243 263 277 292 297 299 306 312 317 319 317 325 338 343 350 5 11 23 41 47 45 41 38 38